Time,TemperatureF,DewpointF,PressureIn,WindDirection,WindDirectionDegrees,WindSpeedMPH,WindSpeedGustMPH,Humidity,HourlyPrecipIn,Conditions,Clouds,dailyrainin,SoftwareType,DateUTC
2013-01-24 00:03:00,22.0,10.0,-100.00,SSW,200,1.0,3.0,59,0.00,,,-99.99,,2013-01-24 05:03:00,
2013-01-24 00:12:00,22.0,10.0,-100.00,South,185,1.0,3.0,59,0.00,,,-99.99,,2013-01-24 05:12:00,
2013-01-24 00:22:00,22.0,11.0,-100.00,SSW,200,1.0,4.0,62,0.00,,,-99.99,,2013-01-24 05:22:00,
2013-01-24 00:33:00,22.0,12.0,-100.00,WSW,255,1.0,3.0,64,0.00,,,-99.99,,2013-01-24 05:33:00,
2013-01-24 00:42:00,22.0,11.0,-100.00,WSW,245,1.0,3.0,62,0.00,,,-99.99,,2013-01-24 05:42:00,
2013-01-24 00:52:00,22.0,11.0,-100.00,WSW,240,1.0,3.0,61,0.00,,,-99.99,,2013-01-24 05:52:00,
2013-01-24 01:03:00,23.0,12.0,-100.00,NNW,335,3.0,14.0,61,0.00,,,-99.99,,2013-01-24 06:03:00,
2013-01-24 01:12:00,25.0,13.0,-100.00,NW,315,5.0,14.0,59,0.00,,,-99.99,,2013-01-24 06:12:00,
2013-01-24 01:22:00,24.0,12.0,-100.00,NW,320,4.0,12.0,59,0.00,,,-99.99,,2013-01-24 06:22:00,
2013-01-24 01:32:00,23.0,11.0,-100.00,NW,320,6.0,14.0,59,0.00,,,-99.99,,2013-01-24 06:32:00,
2013-01-24 01:42:00,23.0,11.0,-100.00,NW,325,3.0,9.0,61,0.00,,,-99.99,,2013-01-24 06:42:00,
2013-01-24 01:52:00,23.0,11.0,-100.00,NW,325,3.0,9.0,61,0.00,,,-99.99,,2013-01-24 06:52:00,
2013-01-24 02:03:00,22.0,11.0,-100.00,NW,310,2.0,11.0,62,0.00,,,-99.99,,2013-01-24 07:03:00,
2013-01-24 02:12:00,22.0,11.0,-100.00,NNW,330,4.0,15.0,62,0.00,,,-99.99,,2013-01-24 07:12:00,
2013-01-24 02:23:00,22.0,10.0,-100.00,NW,310,6.0,10.0,59,0.00,,,-99.99,,2013-01-24 07:23:00,
2013-01-24 02:33:00,22.0,9.0,-100.00,NW,325,6.0,12.0,55,0.00,,,-99.99,,2013-01-24 07:33:00,
2013-01-24 02:43:00,22.0,8.0,-100.00,NNW,340,3.0,10.0,54,0.00,,,-99.99,,2013-01-24 07:43:00,
2013-01-24 02:52:00,22.0,7.0,-100.00,NW,310,4.0,11.0,51,0.00,,,-99.99,,2013-01-24 07:52:00,
2013-01-24 03:02:00,22.0,5.0,-100.00,WNW,300,6.0,16.0,47,0.00,,,-99.99,,2013-01-24 08:02:00,
2013-01-24 03:12:00,22.0,5.0,-100.00,NNW,330,7.0,14.0,49,0.00,,,-99.99,,2013-01-24 08:12:00,
2013-01-24 03:23:00,21.0,6.0,-100.00,WNW,285,5.0,16.0,51,0.00,,,-99.99,,2013-01-24 08:23:00,
2013-01-24 03:33:00,21.0,6.0,-100.00,NNW,340,5.0,12.0,50,0.00,,,-99.99,,2013-01-24 08:33:00,
2013-01-24 03:43:00,21.0,6.0,-100.00,NW,320,3.0,12.0,51,0.00,,,-99.99,,2013-01-24 08:43:00,
2013-01-24 03:52:00,20.0,6.0,-100.00,NNW,330,4.0,12.0,53,0.00,,,-99.99,,2013-01-24 08:52:00,
2013-01-24 04:03:00,20.0,6.0,-100.00,NW,310,4.0,11.0,53,0.00,,,-99.99,,2013-01-24 09:03:00,
2013-01-24 04:13:00,20.0,7.0,-100.00,NW,315,6.0,11.0,56,0.00,,,-99.99,,2013-01-24 09:13:00,
2013-01-24 04:23:00,20.0,8.0,-100.00,NNW,345,6.0,12.0,57,0.00,,,-99.99,,2013-01-24 09:23:00,
2013-01-24 04:33:00,20.0,8.0,-100.00,NW,325,6.0,10.0,59,0.00,,,-99.99,,2013-01-24 09:33:00,
2013-01-24 04:43:00,20.0,9.0,-100.00,NNW,330,7.0,16.0,60,0.00,,,-99.99,,2013-01-24 09:43:00,
2013-01-24 04:52:00,20.0,9.0,-100.00,NNW,335,4.0,11.0,62,0.00,,,-99.99,,2013-01-24 09:52:00,
2013-01-24 05:03:00,19.0,8.0,-100.00,NNW,340,6.0,17.0,62,0.00,,,-99.99,,2013-01-24 10:03:00,
2013-01-24 05:12:00,19.0,8.0,-100.00,NNW,340,4.0,12.0,60,0.00,,,-99.99,,2013-01-24 10:12:00,
2013-01-24 05:23:00,19.0,8.0,-100.00,NW,325,6.0,11.0,61,0.00,,,-99.99,,2013-01-24 10:23:00,
2013-01-24 05:33:00,19.0,7.0,-100.00,NNW,330,5.0,12.0,60,0.00,,,-99.99,,2013-01-24 10:33:00,
2013-01-24 05:43:00,19.0,7.0,-100.00,NNW,330,6.0,14.0,59,0.00,,,-99.99,,2013-01-24 10:43:00,
2013-01-24 06:03:00,18.0,6.0,-100.00,NNW,330,4.0,11.0,57,0.00,,,-99.99,,2013-01-24 11:03:00,
2013-01-24 06:12:00,18.0,5.0,-100.00,North,350,3.0,9.0,57,0.00,,,-99.99,,2013-01-24 11:12:00,
2013-01-24 06:23:00,18.0,5.0,-100.00,NNW,340,3.0,7.0,57,0.00,,,-99.99,,2013-01-24 11:23:00,
2013-01-24 06:33:00,17.0,5.0,-100.00,NNW,335,3.0,6.0,57,0.00,,,-99.99,,2013-01-24 11:33:00,
2013-01-24 06:43:00,17.0,5.0,-100.00,NNW,345,3.0,9.0,56,0.00,,,-99.99,,2013-01-24 11:43:00,
2013-01-24 06:53:00,17.0,5.0,-100.00,North,355,3.0,11.0,57,0.00,,,-99.99,,2013-01-24 11:53:00,
2013-01-24 07:03:00,17.0,5.0,-100.00,NNW,340,3.0,6.0,58,0.00,,,-99.99,,2013-01-24 12:03:00,
2013-01-24 07:12:00,17.0,5.0,-100.00,North,10,2.0,6.0,59,0.00,,,-99.99,,2013-01-24 12:12:00,
2013-01-24 07:23:00,17.0,5.0,-100.00,North,10,2.0,6.0,59,0.00,,,-99.99,,2013-01-24 12:23:00,
2013-01-24 07:33:00,17.0,5.0,-100.00,NNW,340,2.0,6.0,60,0.00,,,-99.99,,2013-01-24 12:33:00,
2013-01-24 07:43:00,16.0,5.0,-100.00,NNW,345,2.0,7.0,60,0.00,,,-99.99,,2013-01-24 12:43:00,
2013-01-24 07:53:00,16.0,6.0,-100.00,North,0,2.0,5.0,62,0.00,,,-99.99,,2013-01-24 12:53:00,
2013-01-24 08:03:00,16.0,6.0,-100.00,NNE,30,3.0,7.0,62,0.00,,,-99.99,,2013-01-24 13:03:00,
2013-01-24 08:13:00,16.0,6.0,-100.00,NNE,15,2.0,7.0,63,0.00,,,-99.99,,2013-01-24 13:13:00,
2013-01-24 08:23:00,16.0,6.0,-100.00,NNW,340,2.0,8.0,63,0.00,,,-99.99,,2013-01-24 13:23:00,
2013-01-24 08:33:00,16.0,6.0,-100.00,NNE,15,2.0,6.0,63,0.00,,,-99.99,,2013-01-24 13:33:00,
2013-01-24 08:43:00,16.0,6.0,-100.00,NE,35,2.0,6.0,63,0.00,,,-99.99,,2013-01-24 13:43:00,
2013-01-24 08:53:00,16.0,6.0,-100.00,North,350,2.0,6.0,62,0.00,,,-99.99,,2013-01-24 13:53:00,
2013-01-24 09:03:00,17.0,6.0,-100.00,ENE,60,2.0,8.0,62,0.00,,,-99.99,,2013-01-24 14:03:00,
2013-01-24 09:12:00,17.0,6.0,-100.00,North,0,2.0,7.0,60,0.00,,,-99.99,,2013-01-24 14:12:00,
2013-01-24 09:23:00,17.0,6.0,-100.00,North,0,4.0,7.0,59,0.00,,,-99.99,,2013-01-24 14:23:00,
2013-01-24 09:33:00,18.0,6.0,-100.00,North,0,3.0,6.0,59,0.00,,,-99.99,,2013-01-24 14:33:00,
2013-01-24 09:43:00,18.0,6.0,-100.00,North,5,4.0,8.0,58,0.00,,,-99.99,,2013-01-24 14:43:00,
2013-01-24 09:53:00,18.0,6.0,-100.00,North,5,4.0,8.0,58,0.00,,,-99.99,,2013-01-24 14:53:00,
2013-01-24 10:04:00,19.0,5.0,-100.00,NNE,15,4.0,6.0,53,0.00,,,-99.99,,2013-01-24 15:04:00,
2013-01-24 10:12:00,19.0,5.0,-100.00,North,0,2.0,7.0,53,0.00,,,-99.99,,2013-01-24 15:12:00,
2013-01-24 10:23:00,19.0,6.0,-100.00,North,0,2.0,7.0,54,0.00,,,-99.99,,2013-01-24 15:23:00,
2013-01-24 10:33:00,20.0,5.0,-100.00,North,0,2.0,6.0,51,0.00,,,-99.99,,2013-01-24 15:33:00,
2013-01-24 10:43:00,21.0,5.0,-100.00,NNW,340,4.0,6.0,50,0.00,,,-99.99,,2013-01-24 15:43:00,
2013-01-24 10:53:00,21.0,5.0,-100.00,NNW,340,4.0,6.0,50,0.00,,,-99.99,,2013-01-24 15:53:00,
2013-01-24 11:03:00,22.0,4.0,-100.00,North,0,4.0,8.0,45,0.00,,,-99.99,,2013-01-24 16:03:00,
2013-01-24 11:12:00,22.0,2.0,-100.00,North,0,4.0,9.0,41,0.00,,,-99.99,,2013-01-24 16:12:00,
2013-01-24 11:23:00,23.0,3.0,-100.00,North,0,4.0,8.0,42,0.00,,,-99.99,,2013-01-24 16:23:00,
2013-01-24 11:33:00,23.0,2.0,-100.00,North,0,4.0,7.0,40,0.00,,,-99.99,,2013-01-24 16:33:00,
2013-01-24 11:42:00,23.0,2.0,-100.00,North,0,4.0,7.0,40,0.00,,,-99.99,,2013-01-24 16:42:00,
2013-01-24 12:03:00,23.0,0.0,-100.00,NNW,340,5.0,9.0,36,0.00,,,-99.99,,2013-01-24 17:03:00,
2013-01-24 12:12:00,24.0,0.0,-100.00,NNE,25,4.0,7.0,35,0.00,,,-99.99,,2013-01-24 17:12:00,
2013-01-24 12:22:00,24.0,-1.0,-100.00,NNW,335,5.0,9.0,33,0.00,,,-99.99,,2013-01-24 17:22:00,
2013-01-24 12:32:00,24.0,0.0,-100.00,North,355,4.0,8.0,33,0.00,,,-99.99,,2013-01-24 17:32:00,
2013-01-24 12:42:00,25.0,0.0,-100.00,North,10,3.0,8.0,33,0.00,,,-99.99,,2013-01-24 17:42:00,
2013-01-24 12:52:00,25.0,-1.0,-100.00,North,355,4.0,8.0,31,0.00,,,-99.99,,2013-01-24 17:52:00,
2013-01-24 13:03:00,25.0,-1.0,-100.00,NNW,345,6.0,11.0,31,0.00,,,-99.99,,2013-01-24 18:03:00,
2013-01-24 13:12:00,25.0,-1.0,-100.00,North,0,3.0,9.0,32,0.00,,,-99.99,,2013-01-24 18:12:00,
2013-01-24 13:22:00,25.0,-1.0,-100.00,North,0,3.0,9.0,30,0.00,,,-99.99,,2013-01-24 18:22:00,
2013-01-24 13:33:00,26.0,-1.0,-100.00,North,0,3.0,8.0,30,0.00,,,-99.99,,2013-01-24 18:33:00,
2013-01-24 13:42:00,26.0,-2.0,-100.00,North,5,3.0,7.0,29,0.00,,,-99.99,,2013-01-24 18:42:00,
2013-01-24 13:53:00,26.0,-2.0,-100.00,NNW,335,4.0,9.0,29,0.00,,,-99.99,,2013-01-24 18:53:00,
2013-01-24 14:02:00,26.0,0.0,-100.00,North,350,4.0,6.0,31,0.00,,,-99.99,,2013-01-24 19:02:00,
2013-01-24 14:12:00,25.0,-1.0,-100.00,ENE,75,4.0,8.0,30,0.00,,,-99.99,,2013-01-24 19:12:00,
2013-01-24 14:22:00,26.0,0.0,-100.00,North,0,3.0,6.0,31,0.00,,,-99.99,,2013-01-24 19:22:00,
2013-01-24 14:33:00,24.0,-4.0,-100.00,East,85,7.0,11.0,28,0.00,,,-99.99,,2013-01-24 19:33:00,
2013-01-24 14:42:00,25.0,-1.0,-100.00,North,0,2.0,6.0,30,0.00,,,-99.99,,2013-01-24 19:42:00,
2013-01-24 14:52:00,27.0,-1.0,-100.00,ENE,65,3.0,6.0,29,0.00,,,-99.99,,2013-01-24 19:52:00,
2013-01-24 15:02:00,25.0,-3.0,-100.00,North,10,2.0,7.0,28,0.00,,,-99.99,,2013-01-24 20:02:00,
2013-01-24 15:11:00,26.0,-2.0,-100.00,North,5,3.0,6.0,29,0.00,,,-99.99,,2013-01-24 20:11:00,
2013-01-24 15:22:00,25.0,-3.0,-100.00,ENE,65,4.0,8.0,28,0.00,,,-99.99,,2013-01-24 20:22:00,
2013-01-24 15:33:00,26.0,-3.0,-100.00,NNE,25,3.0,6.0,28,0.00,,,-99.99,,2013-01-24 20:33:00,
2013-01-24 15:42:00,26.0,-2.0,-100.00,North,0,3.0,6.0,28,0.00,,,-99.99,,2013-01-24 20:42:00,
2013-01-24 15:52:00,26.0,-2.0,-100.00,NE,55,3.0,7.0,29,0.00,,,-99.99,,2013-01-24 20:52:00,
2013-01-24 16:03:00,26.0,-2.0,-100.00,NE,35,3.0,6.0,28,0.00,,,-99.99,,2013-01-24 21:03:00,
2013-01-24 16:12:00,26.0,-2.0,-100.00,NE,45,2.0,6.0,28,0.00,,,-99.99,,2013-01-24 21:12:00,
2013-01-24 16:22:00,26.0,-1.0,-100.00,NNE,15,2.0,6.0,30,0.00,,,-99.99,,2013-01-24 21:22:00,
2013-01-24 16:33:00,26.0,-1.0,-100.00,NNE,30,2.0,6.0,30,0.00,,,-99.99,,2013-01-24 21:33:00,
2013-01-24 16:43:00,26.0,-1.0,-100.00,NNE,30,2.0,7.0,29,0.00,,,-99.99,,2013-01-24 21:43:00,
2013-01-24 16:52:00,25.0,-2.0,-100.00,NE,55,2.0,6.0,30,0.00,,,-99.99,,2013-01-24 21:52:00,
2013-01-24 17:03:00,25.0,-2.0,-100.00,ENE,65,2.0,7.0,30,0.00,,,-99.99,,2013-01-24 22:03:00,
2013-01-24 17:12:00,25.0,-1.0,-100.00,NE,55,4.0,6.0,31,0.00,,,-99.99,,2013-01-24 22:12:00,
2013-01-24 17:22:00,25.0,-1.0,-100.00,ENE,70,2.0,6.0,31,0.00,,,-99.99,,2013-01-24 22:22:00,
2013-01-24 17:33:00,25.0,-1.0,-100.00,ENE,60,3.0,6.0,31,0.00,,,-99.99,,2013-01-24 22:33:00,
2013-01-24 17:42:00,24.0,-2.0,-100.00,ENE,65,2.0,7.0,31,0.00,,,-99.99,,2013-01-24 22:42:00,
2013-01-24 17:52:00,24.0,-1.0,-100.00,ENE,70,2.0,6.0,32,0.00,,,-99.99,,2013-01-24 22:52:00,
2013-01-24 18:03:00,24.0,-1.0,-100.00,NE,50,3.0,6.0,33,0.00,,,-99.99,,2013-01-24 23:03:00,
2013-01-24 18:12:00,24.0,-1.0,-100.00,East,80,2.0,7.0,32,0.00,,,-99.99,,2013-01-24 23:12:00,
2013-01-24 18:22:00,23.0,0.0,-100.00,ENE,60,2.0,6.0,34,0.00,,,-99.99,,2013-01-24 23:22:00,
2013-01-24 18:32:00,23.0,0.0,-100.00,ENE,60,3.0,6.0,36,0.00,,,-99.99,,2013-01-24 23:32:00,
2013-01-24 18:42:00,23.0,1.0,-100.00,ENE,65,2.0,6.0,37,0.00,,,-99.99,,2013-01-24 23:42:00,
2013-01-24 18:52:00,23.0,-1.0,-100.00,NE,50,2.0,6.0,35,0.00,,,-99.99,,2013-01-24 23:52:00,
2013-01-24 19:02:00,22.0,0.0,-100.00,NE,50,2.0,4.0,36,0.00,,,-99.99,,2013-01-25 00:02:00,
2013-01-24 19:12:00,23.0,0.0,-100.00,ENE,60,2.0,6.0,37,0.00,,,-99.99,,2013-01-25 00:12:00,
2013-01-24 19:22:00,22.0,1.0,-100.00,NE,40,2.0,6.0,40,0.00,,,-99.99,,2013-01-25 00:22:00,
2013-01-24 19:32:00,22.0,2.0,-100.00,NE,55,2.0,5.0,41,0.00,,,-99.99,,2013-01-25 00:32:00,
2013-01-24 19:42:00,22.0,1.0,-100.00,NE,55,1.0,4.0,39,0.00,,,-99.99,,2013-01-25 00:42:00,
2013-01-24 19:52:00,22.0,3.0,-100.00,ENE,65,1.0,4.0,43,0.00,,,-99.99,,2013-01-25 00:52:00,
2013-01-24 20:02:00,21.0,3.0,-100.00,NE,55,1.0,4.0,44,0.00,,,-99.99,,2013-01-25 01:02:00,
2013-01-24 20:12:00,21.0,2.0,-100.00,NE,50,1.0,4.0,42,0.00,,,-99.99,,2013-01-25 01:12:00,
2013-01-24 20:22:00,21.0,3.0,-100.00,ENE,65,1.0,6.0,43,0.00,,,-99.99,,2013-01-25 01:22:00,
2013-01-24 20:32:00,21.0,3.0,-100.00,ENE,65,2.0,6.0,43,0.00,,,-99.99,,2013-01-25 01:32:00,
2013-01-24 20:42:00,22.0,1.0,-100.00,ENE,70,5.0,8.0,38,0.00,,,-99.99,,2013-01-25 01:42:00,
2013-01-24 20:52:00,22.0,1.0,-100.00,ENE,65,4.0,7.0,39,0.00,,,-99.99,,2013-01-25 01:52:00,
2013-01-24 21:02:00,22.0,1.0,-100.00,ENE,70,4.0,9.0,40,0.00,,,-99.99,,2013-01-25 02:02:00,
2013-01-24 21:11:00,22.0,2.0,-100.00,ENE,60,4.0,9.0,42,0.00,,,-99.99,,2013-01-25 02:11:00,
2013-01-24 21:22:00,22.0,3.0,-100.00,ENE,60,5.0,9.0,42,0.00,,,-99.99,,2013-01-25 02:22:00,
2013-01-24 21:32:00,22.0,3.0,-100.00,ENE,75,4.0,7.0,44,0.00,,,-99.99,,2013-01-25 02:32:00,
2013-01-24 21:42:00,22.0,4.0,-100.00,ENE,65,2.0,6.0,46,0.00,,,-99.99,,2013-01-25 02:42:00,
2013-01-24 21:52:00,22.0,5.0,-100.00,ENE,60,3.0,6.0,48,0.00,,,-99.99,,2013-01-25 02:52:00,
2013-01-24 22:02:00,21.0,5.0,-100.00,ENE,65,7.0,9.0,48,0.00,,,-99.99,,2013-01-25 03:02:00,
2013-01-24 22:12:00,22.0,6.0,-100.00,ENE,65,5.0,9.0,49,0.00,,,-99.99,,2013-01-25 03:12:00,
2013-01-24 22:22:00,21.0,5.0,-100.00,ENE,75,7.0,9.0,48,0.00,,,-99.99,,2013-01-25 03:22:00,
2013-01-24 22:33:00,22.0,6.0,-100.00,NE,40,1.0,8.0,50,0.00,,,-99.99,,2013-01-25 03:33:00,
2013-01-24 22:42:00,22.0,6.0,-100.00,ENE,70,2.0,6.0,49,0.00,,,-99.99,,2013-01-25 03:42:00,
2013-01-24 22:52:00,22.0,6.0,-100.00,East,90,2.0,6.0,49,0.00,,,-99.99,,2013-01-25 03:52:00,
2013-01-24 23:02:00,22.0,6.0,-100.00,ESE,115,2.0,4.0,49,0.00,,,-99.99,,2013-01-25 04:02:00,
2013-01-24 23:12:00,22.0,6.0,-100.00,East,95,1.0,6.0,50,0.00,,,-99.99,,2013-01-25 04:12:00,
2013-01-24 23:22:00,22.0,6.0,-100.00,East,85,1.0,6.0,50,0.00,,,-99.99,,2013-01-25 04:22:00,
2013-01-24 23:32:00,22.0,6.0,-100.00,ENE,70,3.0,7.0,49,0.00,,,-99.99,,2013-01-25 04:32:00,
2013-01-24 23:42:00,22.0,6.0,-100.00,ENE,65,4.0,11.0,50,0.00,,,-99.99,,2013-01-25 04:42:00,
2013-01-24 23:51:00,22.0,6.0,-100.00,East,80,4.0,9.0,50,0.00,,,-99.99,,2013-01-25 04:51:00,